This is the latest recevied weather packets stored in our database for station/object KC1IUC-13. If no packets are shown the sender has not sent any weather packets the latest 10 day(s).
| Time | Temp. | Humidity | Pressure | Rain* | Wind** | Luminosity | Snow |
|---|---|---|---|---|---|---|---|
| 1777240803 | 15.56° C | 54% | 1015.9 hPa | 0 mm | - | 24 W/m² | - |
| 1777240443 | 15.56° C | 54% | 1015.9 hPa | 0 mm | - | 25 W/m² | - |
| 1777239903 | 15.56° C | 55% | 1015.5 hPa | 0 mm | - | 27 W/m² | - |
| 1777239363 | 15.56° C | 55% | 1015.5 hPa | 0 mm | - | 29 W/m² | - |
| 1777238823 | 15.56° C | 55% | 1015.5 hPa | 0 mm | - | 31 W/m² | - |
| 1777238283 | 15.56° C | 56% | 1015.2 hPa | 0 mm | - | 32 W/m² | - |
| 1777237743 | 15.56° C | 56% | 1015.5 hPa | 0 mm | - | 34 W/m² | - |
| 1777237203 | 15.56° C | 56% | 1015.5 hPa | 0 mm | - | 36 W/m² | - |
| 1777236843 | 15.56° C | 57% | 1015.2 hPa | 0 mm | - | 37 W/m² | - |
| 1777236303 | 15.56° C | 57% | 1015.5 hPa | 0 mm | - | 38 W/m² | - |
| 1777235763 | 15.56° C | 57% | 1015.5 hPa | 0 mm | - | 40 W/m² | - |
| 1777235223 | 16.11° C | 57% | 1015.5 hPa | 0 mm | - | 423 W/m² | - |
| 1777234683 | 16.67° C | 58% | 1015.2 hPa | 0 mm | - | 498 W/m² | - |
| 1777234143 | 16.67° C | 59% | 1015.5 hPa | 0 mm | - | 527 W/m² | - |
| 1777233603 | 17.22° C | 60% | 1015.9 hPa | 0 mm | - | 552 W/m² | - |
| 1777233243 | 16.67° C | 60% | 1015.5 hPa | 0 mm | - | 572 W/m² | - |
| 1777232703 | 17.22° C | 61% | 1015.5 hPa | 0 mm | - | 591 W/m² | - |
| 1777232163 | 16.11° C | 61% | 1015.9 hPa | 0 mm | - | 624 W/m² | - |
| 1777231623 | 16.11° C | 61% | 1015.5 hPa | 0 mm | - | 678 W/m² | - |
| 1777231083 | 16.67° C | 62% | 1015.9 hPa | 0 mm | - | 692 W/m² | - |
| 1777230543 | 16.11° C | 63% | 1015.9 hPa | 0 mm | - | 514 W/m² | - |
| 1777230003 | 15.56° C | 63% | 1016.2 hPa | 0 mm | - | 663 W/m² | - |
| 1777229643 | 15.56° C | 63% | 1015.9 hPa | 0 mm | - | 470 W/m² | - |
| 1777229103 | 15.56° C | 64% | 1016.2 hPa | 0 mm | - | 380 W/m² | - |
| 1777228563 | 15.56° C | 66% | 1015.9 hPa | 0 mm | - | 458 W/m² | - |
* Rain latest hour (hover to see other rain measurements)
** Current wind speed in m/s (hover to see current wind gust speed)